Vorticity
nan nan nan nan nan nan nan nan nan nan nan nan nan nan nan nan nan nan nan nan nan nan nan nan nan nan nan nan nan nan nan nan nan nan nan nan nan nan nan nan nan nan nan nan
nan 9 5 6 8 5 5 4 3 8 13 7 17 14 11 10 9 9 8 11 10 9 11 9 10 8 11 10 7 6 7 6 3 4 6 9 8 8 10 9 8 6 7 nan
nan 8 11 4 7 9 6 6 5 4 9 14 17 8 7 6 7 10 13 12 12 11 7 9 10 8 9 11 12 10 8 6 5 5 5 8 6 8 12 11 11 11 10 nan
nan 8 9 7 5 6 8 9 4 3 10 17 5 11 8 9 4 7 13 10 8 7 8 13 11 8 8 7 8 13 12 9 7 8 10 10 6 6 7 9 13 14 13 nan
nan 9 6 8 9 3 7 11 10 8 12 6 4 14 6 11 18 16 8 7 7 7 8 15 11 9 6 6 7 7 9 9 11 11 12 10 10 11 11 12 11 10 10 nan
nan 4 10 7 11 8 5 9 12 13 8 10 13 2 7 12 21 22 9 8 7 13 13 15 14 10 7 5 10 11 12 8 13 14 12 12 14 10 9 9 6 8 10 nan
nan 7 5 11 7 14 8 8 13 12 10 11 7 5 9 6 11 17 12 10 10 15 18 16 12 8 12 12 11 10 7 8 9 10 11 11 8 7 9 10 8 8 9 nan
nan 12 16 8 7 5 12 6 8 12 10 12 10 11 13 12 9 5 16 16 10 10 12 13 12 11 8 7 7 8 7 7 8 8 8 7 9 11 9 8 9 8 9 nan
nan 10 11 11 11 7 10 10 4 1 7 13 11 10 14 8 10 13 17 13 11 9 10 11 9 7 6 7 7 7 7 7 8 9 7 8 10 10 8 7 8 8 8 nan
nan 22 16 14 12 15 5 8 7 7 10 5 10 11 0 3 8 2 15 26 10 8 9 10 8 8 10 10 8 7 9 9 7 8 9 8 8 7 8 8 9 10 9 nan
nan 15 9 16 26 10 6 10 6 12 8 7 10 9 6 3 5 9 2 11 21 8 7 7 8 8 8 8 9 8 9 8 8 8 8 8 8 9 9 7 7 8 8 nan
nan 9 20 8 -1 1 19 12 8 8 9 10 11 3 9 13 10 6 7 1 6 13 25 6 7 6 6 6 7 9 9 8 9 9 8 7 7 8 8 8 8 8 8 nan
nan 9 7 8 13 17 12 6 14 4 10 11 8 11 7 9 13 8 11 9 2 20 15 9 7 8 9 10 9 8 9 9 8 9 8 8 7 8 8 8 8 8 8 nan
nan 15 11 8 11 11 10 15 7 2 4 11 11 15 9 11 6 8 14 11 5 9 5 15 10 10 9 9 8 8 9 9 8 8 8 8 8 9 9 10 11 12 12 nan
nan 10 10 11 6 8 13 16 13 12 5 16 14 10 9 10 11 11 8 9 6 6 11 8 7 7 7 7 8 9 9 8 8 7 8 9 10 10 11 11 11 12 11 nan
nan 11 11 11 4 7 8 16 24 16 5 6 8 9 14 12 16 15 10 8 4 7 9 7 7 8 8 9 9 8 8 8 9 9 10 11 11 10 10 10 10 9 8 nan
nan 10 8 8 7 12 18 9 9 10 13 10 10 6 5 11 13 18 20 13 8 10 8 7 7 7 8 9 8 8 9 10 10 11 9 10 10 9 9 9 9 9 9 nan
nan 8 7 11 13 11 0 13 22 7 8 6 10 21 14 7 15 16 16 17 11 8 8 8 7 7 7 7 8 9 10 10 11 10 8 7 8 9 9 9 9 8 7 nan
nan 12 11 8 10 14 21 21 19 9 8 13 18 17 16 5 3 4 11 10 11 9 8 9 9 8 7 7 9 11 10 10 9 7 8 8 9 9 9 8 9 9 11 nan
nan 18 12 10 10 9 10 17 9 2 8 32 34 10 3 -2 1 8 7 5 7 8 10 8 6 7 9 8 10 11 9 9 7 8 8 10 10 9 9 10 11 13 11 nan
nan 14 6 9 8 5 7 9 9 15 14 16 13 13 9 10 13 13 7 6 7 8 8 8 8 8 6 9 10 10 10 8 8 9 9 11 11 11 11 11 12 11 10 nan
nan 12 8 8 11 9 12 20 24 15 15 12 12 13 11 10 10 9 8 9 9 9 10 8 7 8 7 9 9 8 8 10 11 11 10 10 12 12 11 11 11 12 12 nan
nan 15 13 12 11 12 20 21 17 17 12 8 8 9 9 9 8 8 7 8 10 10 10 11 12 9 8 7 6 6 9 11 12 13 12 12 12 12 12 12 11 12 12 nan
nan 15 16 13 15 16 9 9 13 11 10 12 11 12 10 9 9 9 9 9 9 9 9 10 10 10 12 11 8 6 8 10 10 10 13 13 11 12 13 13 11 11 10 nan
nan 11 11 9 6 6 7 9 10 9 9 9 12 13 10 8 9 10 9 9 9 9 10 10 9 11 11 10 11 8 6 8 10 11 13 13 11 10 11 12 12 12 11 nan
nan nan nan nan nan nan nan nan nan nan nan nan nan nan nan nan nan nan nan nan nan nan nan nan nan nan nan nan nan nan nan nan nan nan nan nan nan nan nan nan nan nan nan nan
CAPE
0 0 0 0 0 0 0 0 0 0 0 0 0 0 0 0 0 0 0 0 0 0 0 0 0 34 653 473 162 0 4 26 0 0 0 0 0 0 29 0 141 78 0 58
0 0 0 0 0 0 0 0 0 0 0 0 0 0 0 0 0 0 0 0 0 0 0 0 19 175 1154 905 196 105 76 228 37 22 43 17 0 16 886 0 0 0 0 48
0 0 0 0 0 0 0 0 0 0 0 0 0 0 0 0 0 0 0 0 0 0 0 0 160 614 909 1306 1828 1485 1310 666 241 621 999 1072 825 1224 1237 568 51 56 74 487
0 0 0 0 0 0 0 0 0 0 0 0 1 0 0 0 0 0 0 0 0 0 0 0 249 450 1569 1550 2378 2594 2409 1706 1728 2009 1474 1513 1340 1110 1220 1095 928 268 517 752
0 0 0 0 0 0 0 0 0 0 0 0 0 0 0 0 0 0 0 0 0 0 0 0 28 453 1459 1151 1432 1888 2407 2346 2201 2070 1792 1484 1282 411 287 422 161 22 0 8
0 0 0 0 0 0 0 0 0 0 0 0 0 0 0 0 0 0 0 0 0 0 0 0 32 166 897 450 1084 1266 721 444 428 699 481 478 449 371 371 201 167 258 306 156
8 0 0 0 0 0 0 0 0 0 0 0 0 0 0 0 1 0 0 0 0 0 0 1 56 135 1147 856 580 509 168 93 45 66 48 18 95 43 36 70 43 14 11 35
0 4 0 0 0 0 0 0 0 0 0 0 0 0 0 0 0 0 0 0 18 15 44 84 193 1060 776 431 257 94 1 1 12 22 2 1 0 0 0 0 0 0 0 0
4 0 0 0 0 0 0 0 0 0 2 0 0 0 41 26 22 3 3 3 48 13 41 227 733 548 330 250 75 32 13 5 5 0 0 0 0 0 0 0 0 0 0 0
11 17 1 0 0 0 0 0 0 0 0 0 6 27 66 50 7 14 0 38 260 243 281 358 248 159 53 9 0 0 0 0 0 0 0 0 0 0 0 0 0 0 0 0
10 74 0 0 6 0 0 0 0 0 0 0 0 66 42 9 0 8 17 2 125 198 104 21 0 0 0 0 0 0 0 0 0 0 0 0 0 0 0 0 0 0 0 0
7 22 0 0 0 0 0 0 0 8 29 20 0 112 3 0 0 0 0 1 1 0 22 9 0 0 0 0 0 0 0 0 0 0 0 0 0 0 0 0 0 0 0 0
40 0 2 1 0 0 0 1 0 0 16 43 52 12 6 17 1 24 1 0 0 11 0 0 0 0 0 0 0 0 0 0 0 0 0 0 0 0 0 0 0 0 0 0
7 20 0 0 0 0 0 0 0 0 0 0 46 16 23 16 0 0 0 0 2 3 0 0 0 0 0 0 0 0 0 0 0 0 0 0 0 0 0 0 0 0 0 0
50 26 15 13 19 9 22 18 0 2 63 4 41 50 20 31 41 0 0 0 0 0 0 0 0 0 0 0 0 0 0 0 0 0 0 0 0 0 0 0 0 0 0 0
6 31 1 8 0 45 33 24 41 149 33 33 0 13 0 0 0 4 1 0 0 2 0 0 0 0 0 0 0 0 0 0 0 0 0 0 0 0 0 0 0 0 0 0
6 36 12 22 0 0 0 15 89 116 8 33 6 3 0 4 9 9 6 0 0 0 0 0 0 0 0 0 0 0 0 0 0 0 0 0 0 0 0 0 0 0 0 0
20 70 29 1 2 0 0 2 54 116 146 22 3 0 0 0 0 0 0 0 0 0 0 0 0 0 0 0 0 0 0 0 0 0 0 0 0 0 0 0 0 0 0 0
0 29 40 0 0 0 0 5 7 44 8 18 0 0 0 0 0 0 0 0 0 0 0 0 0 0 0 0 0 0 0 0 0 0 0 0 0 0 0 0 0 0 0 0
0 64 11 0 1 0 0 0 0 0 0 5 1 0 0 0 0 0 0 0 0 0 0 0 0 0 0 0 0 0 0 0 0 0 0 0 0 0 0 0 0 0 0 0
5 8 0 0 4 21 4 0 0 2 4 0 0 0 0 0 0 0 0 0 0 0 0 0 0 0 0 0 0 0 0 0 1 1 1 1 0 1 0 0 0 0 0 0
0 0 0 0 1 0 15 29 3 0 0 0 0 0 0 0 0 0 0 0 0 0 0 0 0 0 0 0 0 0 3 4 1 1 0 1 0 1 1 0 0 0 0 1
0 0 0 0 28 9 2 0 0 0 0 0 0 0 0 0 0 0 0 0 0 0 0 0 0 0 0 0 0 0 1 3 3 2 2 1 1 0 0 0 0 1 1 2
29 19 0 0 12 0 0 0 0 0 0 0 0 0 0 0 0 0 0 0 0 0 0 0 0 0 0 0 0 0 0 2 5 1 2 3 2 0 0 0 1 2 3 3
8 31 8 2 7 0 0 0 0 0 0 0 0 0 0 0 0 0 0 0 0 0 0 0 0 0 0 0 0 0 1 1 1 3 5 4 2 0 0 0 1 2 1 1
13 21 0 2 1 0 0 0 0 0 0 0 0 0 0 0 0 0 0 0 0 0 0 0 0 0 0 0 0 0 0 1 6 2 3 2 1 1 1 1 1 0 0 0